This demonstration page uses our WeatherBlox Daily Observations layout. Learn more.

Left ArrowRight Arrow

Hourly Observations for March 23, 2017

Temp ( °F °C ) Dew Point ( °F °C ) Humidity (%) Winds ( mph kmh ) Pressure ( in mb ) Visibility ( mi km ) Precip ( " mm )
12:52 am 00:52 Cloudy 52 11.1 29 -1.7 41 41 SSE 23 37 30.19 1022 10 16 0.00 0.00
1:52 am 01:52 Cloudy 51 10.6 28 -2.2 41 41 SE 22 35 30.16 1021 10 16 0.00 0.00
2:52 am 02:52 Cloudy 50 10 30 -1.1 46 46 SE 17 28 30.17 1022 10 16 0.00 0.00
3:52 am 03:52 Cloudy 50 10 29 -1.7 44 44 SSE 21 33 30.14 1021 10 16 0.00 0.00
4:52 am 04:52 Clear 49 9.4 28 -2.2 44 44 SSE 18 30 30.13 1020 10 16 0.00 0.00
5:52 am 05:52 Mostly Clear 48 8.9 27 -2.8 44 44 SSE 22 35 30.12 1020 10 16 0.00 0.00
6:52 am 06:52 Clear 47 8.3 26 -3.3 44 44 SSE 28 44 30.13 1020 10 16 0.00 0.00
7:52 am 07:52 Sunny 48 8.9 27 -2.8 44 44 SSE 22 35 30.13 1020 10 16 0.00 0.00
8:52 am 08:52 Sunny 51 10.6 29 -1.7 43 43 SSE 24 39 30.13 1020 10 16 0.00 0.00
9:52 am 09:52 Cloudy 54 12.2 32 0 43 43 SSE 22 35 30.13 1020 10 16 0.00 0.00
10:52 am 10:52 Mostly Cloudy 58 14.4 36 2.2 44 44 SSE 24 39 30.12 1020 10 16 0.00 0.00
11:52 am 11:52 Partly Cloudy 62 16.7 41 5 46 46 SSE 23 37 30.10 1019 10 16 0.00 0.00
12:52 pm 12:52 Sunny 68 20 48 8.9 49 49 S 18 30 30.08 1019 10 16 0.00 0.00
1:52 pm 13:52 Sunny 72 22.2 50 10 46 46 SSE 18 30 30.03 1017 10 16 0.00 0.00
2:52 pm 14:52 Sunny 75 23.9 51 10.6 43 43 S 16 26 29.98 1015 10 16 0.00 0.00
3:52 pm 15:52 Sunny 76 24.4 51 10.6 42 42 S 22 35 29.94 1014 10 16 0.00 0.00
4:52 pm 16:52 Sunny 77 25 51 10.6 40 40 SSE 21 33 29.91 1013 10 16 0.00 0.00
5:52 pm 17:52 Sunny 77 25 47 8.3 35 35 S 24 39 29.89 1012 10 16 0.00 0.00
6:52 pm 18:52 Sunny 75 23.9 41 5 29 29 S 17 28 29.89 1012 10 16 0.00 0.00
7:52 pm 19:52 Clear 71 21.7 45 7.2 39 39 SSE 17 28 29.90 1012 10 16 0.00 0.00
8:52 pm 20:52 Clear 70 21.1 48 8.9 46 46 SSE 20 31 29.90 1012 9 14 0.00 0.00
9:52 pm 21:52 Clear 69 20.6 51 10.6 53 53 SSE 20 31 29.90 1013 10 16 0.00 0.00
10:52 pm 22:52 Clear 67 19.4 52 11.1 59 59 SSE 21 33 29.88 1012 10 16 0.00 0.00
11:52 pm 23:52 Clear 67 19.4 51 10.6 57 57 SSE 22 35 29.87 1012 10 16 0.00 0.00

Powered by AerisWeather